Location: Brunsbüttel
(52.3892°N, 10.6138°E)
Time: 06:58:25
(UTC+00:00)

Cosmos 1758 - Pass Details

Date: 19 May 2025
Orbit: 491 x 512 km, 82.5° (Epoch: 14 June)

Event Time Altitude Azimuth Distance (km) Brightness Sun altitude
Rises 23:16:55 0° 355° (N) 2,645 8.5 -17.6°
Reaches altitude 10° 23:19:12 10° 4° (N) 1,752 7.2 -17.6°
Maximum altitude 23:22:46 36° 72° (ENE) 827 4.3 -17.6°
Enters shadow 23:24:36 23° 124° (ESE) 1,141 4.6 -17.6°
